Regional Weather Roundup
Issued by NWS Upton, NY

Current Version | Previous Version | Text Only | Print | Product List | Glossary On
Versions: 1 2 3 4 5 6 7 8 9 10 11 12 13 14 15 16 17 18 19 20 21 22 23 24 25 26 27 28 29 30 31 32 33 34 35 36 37 38 39 40 41 42 43 44 45 46 47 48 49 50
000
ASUS41 KOKX 112314
RWROKX

Regional Weather Roundup
National Weather Service New York NY
600 PM EST TUE DEC 11 2018

Note: "FAIR" indicates few or no clouds below 12,000 feet with no
significant weather and/or obstructions to visibility.

NYZ071-072-176-178-NJZ106-104-120000-
New York City Metro Area

CITY           SKY/WX    TMP DP  RH WIND       PRES   REMARKS
Central Park   FAIR      38  23  55 MISG      29.98S
Bronx Lehman C   N/A     39  28  65 W3          N/A
LaGuardia Arpt FAIR      38  28  67 S10       29.96S WCI  31
Queens College   N/A     37  30  75 S6          N/A  WCI  33
Kennedy Intl   FAIR      35  29  78 S6        29.98S WCI  30
Breezy Point     N/A     37 N/A N/A SW7         N/A  WCI  32
Brooklyn Coll    N/A     39  32  75 S3          N/A
Staten Island    N/A     36  27  69 W5          N/A  WCI  32
Newark/Liberty FAIR      37  21  52 W10       29.97R WCI  30
Teterboro      FAIR      37  22  54 W7        29.96R WCI  32
$$

NYZ177-179-078>081-120000-
Long Island New York

CITY           SKY/WX    TMP DP  RH WIND       PRES   REMARKS
Jones Beach      N/A     37 N/A N/A SW5         N/A  WCI  34
Wantagh          N/A     36  30  80 SE1         N/A
Hempstead        N/A     37  30  75 CALM      29.99F
Matinecock Pt    N/A     37 N/A N/A SW5         N/A  WCI  34
Farmingdale    FAIR      33  26  75 S3        29.97S
MacArthur/ISP  FAIR      35  27  72 SW7       29.96F WCI  29
Stony Brook      N/A     32  28  86 CALM        N/A
Shirley        FAIR      29  25  85 CALM      29.97S
Mt Sinai Harb    N/A    N/A N/A N/A S1          N/A
Westhampton    FAIR      24  18  77 NW3       29.98S
East Hampton   FAIR      25  23  94 CALM      29.96S
Southold         N/A     32  30  93 N2          N/A
Montauk          N/A     39  31  72 CALM      29.97S
$$

NYZ052-065-067-120000-
Hudson Valley

CITY           SKY/WX    TMP DP  RH WIND       PRES   REMARKS
White Plains   FAIR      30  22  72 CALM      29.94S
Larchmont Harb   N/A     37 N/A N/A S10         N/A  WCI  30
Croton On Huds   N/A     32 N/A N/A MISG        N/A
Somers           N/A     32  23  69 SW2         N/A
Brewster         N/A     30  21  69 CALM        N/A
Newburgh       CLEAR     28  23  80 CALM      29.95R
Montgomery     FAIR      26  20  77 CALM      29.94R
Otisville        N/A     28  19  69 SW1         N/A
Warwick          N/A     28  21  74 CALM        N/A
Suffern          N/A     32  21  64 S2          N/A
Poughkeepsie   FAIR      27  19  72 CALM      29.96R
Albany         FLURRIES  29  17  61 NW6       30.00R WCI  23
$$

NJZ001-105-106-008-010-013-015-019>022-104-120000-
New Jersey

CITY           SKY/WX    TMP DP  RH WIND       PRES   REMARKS
Newark/Liberty FAIR      37  21  52 W10       29.97R WCI  30
Teterboro      FAIR      37  22  54 W7        29.96R WCI  32
Caldwell       FAIR      31  20  63 CALM      29.97R
Somerville     FAIR      28  20  71 CALM      29.96R
Linden         FAIR      37  20  50 W7        29.98R WCI  32
Perth Amboy      N/A     36 N/A N/A W7          N/A  WCI  30
Sussex         FAIR      28  20  71 CALM      29.95R
Andover          N/A     26  21  81 CALM      29.95R
Trenton        FAIR      36  21  54 W3        29.98R
Millville      FAIR      24  20  84 CALM      30.01R
Atlantic City  FAIR      36  24  62 W6        30.00R WCI  31
Wrightstown    CLEAR     31  20  66 SW6       29.96  WCI  25
Toms River     FAIR      26  22  84 CALM      29.99R
Belmar         FAIR      35  30  82 SW6       29.98S WCI  30
$$

PAZ047>061-062-071-120000-
Eastern Pennsylvania

CITY           SKY/WX    TMP DP  RH WIND       PRES   REMARKS
Philadelphia   FAIR      38  20  48 W9        30.02R WCI  31
Allentown      FAIR      31  20  63 W6        29.98R WCI  25
Scranton       CLOUDY    29  19  66 SW8       29.95S WCI  21
$$

CTZ002-004>006-009-010-012-RIZ004-006-007-MAZ004-011-015-120000-
Southern New England

 In CT

CITY           SKY/WX    TMP DP  RH WIND       PRES   REMARKS
Bradley Intl   FAIR      28  18  66 CALM      29.95F
Hartford       FAIR      28  22  78 CALM      29.96F
Danbury        FAIR      27  20  75 CALM      29.95S
Wtrbury/Oxford FAIR      31  23  72 CALM      29.93F
Norwalk Harbor   N/A     36 N/A N/A SE6         N/A  WCI  31
Bridgeport     FAIR      32  25  75 CALM      29.97S
Meriden        FAIR      27  21  78 CALM      29.96F
New Haven      PTCLDY    34  25  69 CALM      29.97S
Chester        MOCLDY    30  25  80 CALM      29.95S
Groton         FAIR      30  27  88 N3        29.97R
Willimantic    CLOUDY    30  24  78 CALM      29.97S

 In RI

CITY           SKY/WX    TMP DP  RH WIND       PRES   REMARKS
Providence     CLOUDY    34  25  69 CALM      29.98S
Block Island   CLOUDY    36  28  75 CALM      29.96F
Westerly       MOCLDY    37  28  70 N3        29.97R

In MA

CITY           SKY/WX    TMP DP  RH WIND       PRES   REMARKS
Boston         FAIR      33  20  58 S9        29.98S WCI  25
Worcester      FAIR      28  16  60 W3        29.92S
Westfield      FAIR      26  16  65 N3        29.95F
Provincetown   CLOUDY    33  24  69 S3        30.00S
Nantucket      FAIR      29  22  75 NE5       29.97F WCI  24
$$

ANZ330-335-338-340-345-350-353-355-120000-
Coastal Marine Observations


STATION/POSITION TIME  SKY/WX   TEMP    WIND        PRES    VSBY  WAVE
                                AIR SEA DIR/SP/G                  HT/PER
                 (UTC)          (F)     (DEG/KT/KT) (MB)    (MI)  (FT/S)
NY Harb Entrance NOT AVBL
20 S Fire Island NOT AVBL
Great South Bay  2200               43     CALM       N/A
23 SSW Montauk P NOT AVBL
15 E Barnegat Li 2300               50                N/A           4/ 9
Hudson Canyon    NOT AVBL
Kings Point      2242            38 42  220/ 10/ 12 1015.4
Execution Rocks  2230               42  170/  8/ 10   N/A
Western LI Sound 2245            38     140/  6/  8   N/A           0
Central LI Sound NOT AVBL
Robbins Reef     2242            38     210/  7/  8 1015.2
$$


>>>>>>>>>>>>>>>>>>>>>>>>>>>> KEY <<<<<<<<<<<<<<<<<<<<<<<<<<<
>                                                          <
>     SKY/WX - Sky Condition/Present Weather               <
>     TMP    - Temperature in Fahrenheit                   <
>     DP     - Dew Point in Fahrenheit                     <
>     RH     - Relative Humidity in Percent                <
>     WIND   - Direction (from) and Speed in MPH           <
>     PRES   - Mean Sea Level Pressure (inches of Hg)      <
>     WCI    - Wind Chill Index                            <
>     VSB    - Visibility in Miles                         <
>     HX     - Heat Index                                  <
>     TC     - Temperature in Celsius                      <
>     VRB    - Variable Wind Direction                     <
>                                                          <
>>>>>>>>>>>>>>>>>>>>>>>>>>>> KEY <<<<<<<<<<<<<<<<<<<<<<<<<<<



USA.gov is the U.S. government's official web portal to all federal, state and local government web resources and services.